EW1423 Weather Reports


time (UTC)temp
C
wind
direction
speed
KPH
gust
KPH
rain 1hr
cm
rain 24hr
cm
rain mn
cm
humidity
%
barometer
mb
20260509025804 6 66 0.0 0.0 0.00 0.00 0.00 99 1017.7
20260509025306 6 66 0.0 0.0 0.00 0.00 0.00 99 1017.7
20260509024804 6 66 0.0 0.0 0.00 0.00 0.00 99 1017.7
20260509024303 6 66 0.0 0.0 0.00 0.00 0.00 99 1017.6
20260509023303 6 66 0.0 0.0 0.00 0.00 0.00 100 1017.7
20260509022804 6 66 0.0 0.0 0.00 0.00 0.00 99 1017.7
20260509022306 6 66 0.0 0.0 0.00 0.00 0.00 99 1017.7
20260509021803 6 66 0.0 0.0 0.00 0.00 0.00 99 1017.7
20260509021303 6 66 0.0 0.0 0.00 0.00 0.00 99 1017.7
20260509020803 6 66 0.0 0.0 0.00 0.00 0.00 99 1017.7
20260509020304 6 66 0.0 0.0 0.00 0.00 0.00 99 1017.7
20260509015803 6 66 0.0 0.0 0.00 0.00 0.00 99 1017.7
20260509015319 6 66 0.0 0.0 0.00 0.00 0.00 98 1017.7
20260509014803 6 66 0.0 0.0 0.00 0.00 0.00 98 1017.7
20260509014304 6 66 0.0 0.0 0.00 0.00 0.00 98 1017.7
20260509013304 7 66 0.0 0.0 0.00 0.00 0.00 99 1017.7
20260509012804 7 66 0.0 0.0 0.00 0.00 0.00 98 1017.7
20260509012307 7 66 0.0 0.0 0.00 0.00 0.00 98 1017.7
20260509011803 7 66 0.0 0.0 0.00 0.00 0.00 98 1017.7
20260509010304 7 66 0.0 0.0 0.00 0.00 0.00 97 1017.6
20260509005803 7 66 0.0 0.0 0.00 0.00 0.00 97 1017.5
20260509005306 7 66 0.0 0.0 0.00 0.00 0.00 97 1017.5
20260509004803 7 66 0.0 0.0 0.00 0.00 0.00 97 1017.5
20260509003803 7 66 0.0 0.0 0.00 0.00 0.00 97 1017.5
20260509003303 7 66 0.0 0.0 0.00 0.00 0.00 97 1017.6
20260509002803 7 66 0.0 0.0 0.00 0.00 0.00 96 1017.6
20260509002306 7 66 0.0 0.0 0.00 0.00 0.00 96 1017.6
20260509001804 7 66 0.0 0.0 0.00 0.00 0.00 96 1017.6
20260509001304 7 66 0.0 0.0 0.00 0.00 0.00 96 1017.6
20260509000819 7 66 0.0 0.0 0.00 0.00 0.00 95 1017.7
20260509000303 8 66 0.0 0.0 0.00 0.00 0.00 95 1017.7
20260508235803 8 66 0.0 0.0 0.00 0.00 0.00 94 1017.7
20260508235306 8 66 0.0 0.0 0.00 0.00 0.00 94 1017.8
20260508234803 8 66 0.0 0.0 0.00 0.00 0.00 93 1017.7
20260508233304 8 66 0.0 0.0 0.00 0.00 0.00 93 1017.6
20260508232803 9 66 0.0 0.0 0.00 0.00 0.00 93 1017.6
20260508232306 9 66 0.0 1.6 0.00 0.00 0.00 93 1017.6
20260508231804 9 66 0.0 0.0 0.00 0.00 0.00 93 1017.6
20260508230804 9 66 0.0 1.6 0.00 0.03 0.00 93 1017.6
20260508230303 9 66 0.0 1.6 0.00 0.03 0.00 93 1017.6
20260508225803 9 66 0.0 1.6 0.00 0.03 0.00 93 1017.6
20260508225306 9 66 0.0 0.0 0.00 0.03 0.00 93 1017.6
20260508224804 9 66 0.0 0.0 0.00 0.03 0.00 93 1017.6
20260508224304 9 66 0.0 0.0 0.00 0.03 0.00 92 1017.6
20260508223803 9 66 0.0 0.0 0.00 0.03 0.00 92 1017.6
20260508222306 10 66 0.0 0.0 0.00 0.03 0.00 91 1017.5
20260508221803 10 66 0.0 0.0 0.00 0.03 0.00 91 1017.5
20260508221304 10 66 0.0 0.0 0.00 0.03 0.00 90 1017.5
20260508220303 10 66 0.0 0.0 0.00 0.03 0.00 90 1017.5
20260508215803 10 66 0.0 0.0 0.00 0.03 0.03 89 1017.5
20260508215306 10 66 0.0 0.0 0.00 0.03 0.03 89 1017.5
20260508214803 10 66 0.0 0.0 0.00 0.03 0.03 88 1017.5
20260508214304 10 66 0.0 1.6 0.00 0.03 0.03 88 1017.5
20260508213804 10 66 0.0 1.6 0.00 0.03 0.03 88 1017.4
20260508212803 11 66 0.0 1.6 0.00 0.03 0.03 88 1017.4
20260508212306 11 66 0.0 1.6 0.00 0.03 0.03 89 1017.4
20260508211804 11 66 0.0 0.0 0.00 0.03 0.03 88 1017.4
20260508211304 11 66 0.0 1.6 0.00 0.03 0.03 88 1017.4
20260508210303 11 66 0.0 1.6 0.00 0.03 0.03 88 1017.3
20260508205319 11 66 0.0 0.0 0.00 0.03 0.03 86 1017.1
20260508204803 11 66 0.0 0.0 0.00 0.03 0.03 86 1017.1
20260508204303 11 66 0.0 0.0 0.00 0.03 0.03 85 1017.1
20260508203804 12 66 0.0 1.6 0.00 0.03 0.03 84 1017.1
20260508203304 12 66 0.0 0.0 0.00 0.03 0.03 83 1017.1
20260508201303 13 66 0.0 1.6 0.00 0.03 0.03 79 1017.0
20260508200804 13 66 0.0 0.0 0.00 0.03 0.03 77 1017.0
20260508200304 13 66 0.0 1.6 0.00 0.03 0.03 77 1016.7
20260508195804 13 66 0.0 1.6 0.00 0.03 0.03 78 1016.7
20260508195306 13 66 0.0 0.0 0.00 0.03 0.03 76 1016.7
20260508194803 13 66 0.0 0.0 0.00 0.03 0.03 76 1016.7
20260508193804 14 66 0.0 1.6 0.00 0.03 0.03 74 1015.9
20260508193304 15 66 0.0 1.6 0.00 0.03 0.03 72 1015.9
20260508192804 15 66 0.0 0.0 0.00 0.03 0.03 71 1015.9
20260508192306 15 66 0.0 1.6 0.00 0.03 0.03 70 1015.9
20260508191803 15 66 0.0 1.6 0.00 0.03 0.03 69 1015.9
20260508191303 15 66 0.0 4.8 0.00 0.03 0.03 68 1015.9
20260508190804 16 15 1.6 8.0 0.00 0.03 0.03 68 1015.9
20260508190304 16 1 1.6 4.8 0.00 0.03 0.03 67 1015.9
20260508185306 16 9 1.6 4.8 0.00 0.03 0.03 67 1015.9
20260508184804 16 16 1.6 8.0 0.00 0.03 0.03 67 1015.9
20260508184304 16 24 1.6 8.0 0.00 0.03 0.03 67 1015.5
20260508183303 16 335 1.6 8.0 0.00 0.03 0.03 66 1015.5
20260508182804 17 75 1.6 4.8 0.00 0.03 0.03 67 1015.5
20260508182306 17 65 1.6 8.0 0.00 0.03 0.03 66 1015.5
20260508181304 17 29 0.0 3.2 0.00 0.03 0.03 66 1015.3
20260508180304 17 77 1.6 8.0 0.00 0.03 0.03 64 1015.3
20260508175306 17 58 3.2 12.9 0.00 0.03 0.03 64 1015.3
20260508174804 18 120 1.6 8.0 0.00 0.03 0.03 63 1015.1
20260508174303 18 13 1.6 8.0 0.00 0.03 0.03 62 1015.1
20260508173803 18 53 3.2 8.0 0.00 0.03 0.03 62 1015.1
20260508173303 18 21 3.2 9.7 0.00 0.03 0.03 61 1015.1
20260508172307 18 21 3.2 11.3 0.00 0.03 0.03 60 1015.1
20260508171804 19 74 3.2 9.7 0.00 0.03 0.03 59 1015.1
20260508171304 19 26 3.2 8.0 0.00 0.03 0.03 59 1015.0
20260508165803 20 89 3.2 8.0 0.00 0.03 0.03 57 1014.7
20260508165306 20 101 3.2 8.0 0.00 0.03 0.03 57 1014.7
20260508164803 20 59 4.8 9.7 0.00 0.03 0.03 56 1014.7
20260508164303 21 75 3.2 8.0 0.00 0.03 0.03 55 1014.7
20260508163804 21 80 3.2 8.0 0.00 0.03 0.03 54 1014.7
20260508163304 21 87 1.6 8.0 0.00 0.03 0.03 57 1014.7
20260508162306 21 76 4.8 8.0 0.00 0.03 0.03 54 1014.7
20260508161804 21 85 3.2 8.0 0.00 0.03 0.03 54 1014.7
20260508161303 21 2 4.8 12.9 0.00 0.03 0.03 54 1014.8
20260508155804 21 216 3.2 8.0 0.00 0.03 0.03 52 1014.8
20260508155306 21 30 1.6 8.0 0.00 0.03 0.03 50 1014.8
20260508154804 21 114 1.6 3.2 0.00 0.03 0.03 52 1014.8
20260508154304 20 67 3.2 8.0 0.00 0.03 0.03 54 1014.8
20260508153804 20 52 1.6 8.0 0.00 0.03 0.03 55 1014.8
20260508153304 20 85 3.2 8.0 0.00 0.03 0.03 56 1015.0
20260508152306 21 75 3.2 12.9 0.00 0.03 0.03 53 1015.0
20260508151804 21 112 1.6 4.8 0.00 0.03 0.03 51 1015.0
20260508151304 22 78 1.6 4.8 0.00 0.03 0.03 49 1015.0
20260508150804 22 66 1.6 4.8 0.00 0.03 0.03 51 1015.0
20260508150304 22 86 3.2 8.0 0.00 0.03 0.03 48 1015.0
20260508145804 22 134 1.6 8.0 0.00 0.03 0.03 49 1015.0
20260508145306 22 8 3.2 8.0 0.00 0.03 0.03 48 1015.1
20260508144803 22 54 3.2 8.0 0.00 0.03 0.03 49 1015.2
20260508144304 22 78 3.2 8.0 0.00 0.03 0.03 51 1015.2
20260508143804 22 81 3.2 8.0 0.00 0.03 0.03 48 1015.3
20260508143303 22 89 3.2 11.3 0.00 0.03 0.03 49 1015.3
20260508142804 22 31 3.2 9.7 0.00 0.03 0.03 47 1015.3
20260508142306 22 288 3.2 9.7 0.00 0.03 0.03 49 1015.3
20260508141804 22 69 1.6 4.8 0.00 0.03 0.03 48 1015.5
20260508141303 21 186 0.0 1.6 0.00 0.03 0.03 54 1015.5
20260508140804 21 180 1.6 8.0 0.00 0.03 0.03 50 1015.5
20260508140304 22 148 1.6 9.7 0.00 0.03 0.03 54 1015.6
20260508135803 21 140 3.2 8.0 0.00 0.03 0.03 50 1015.6
20260508135306 22 0 1.6 4.8 0.00 0.03 0.03 48 1015.6
20260508134803 22 93 1.6 8.0 0.00 0.03 0.03 54 1015.9
20260508134304 21 113 1.6 4.8 0.00 0.03 0.03 54 1015.9
20260508133304 21 58 1.6 4.8 0.00 0.03 0.03 51 1015.9
20260508132804 21 60 1.6 4.8 0.00 0.03 0.03 53 1015.9
20260508132306 20 53 1.6 4.8 0.00 0.03 0.03 56 1015.9
20260508131805 20 78 1.6 4.8 0.00 0.03 0.03 54 1015.9
20260508131304 20 103 0.0 1.6 0.00 0.03 0.03 54 1016.0
20260508130304 19 103 0.0 1.6 0.00 0.03 0.03 58 1016.1
20260508125306 20 105 1.6 9.7 0.00 0.03 0.03 56 1016.1
20260508124803 20 169 1.6 8.0 0.00 0.03 0.03 55 1016.1
20260508124304 21 292 1.6 4.8 0.00 0.03 0.03 54 1016.1
20260508123804 20 306 3.2 8.0 0.00 0.03 0.03 55 1016.3
20260508123303 20 48 1.6 4.8 0.00 0.03 0.03 56 1016.3
20260508122306 20 299 3.2 8.0 0.00 0.03 0.03 56 1016.3
20260508120803 19 65 1.6 8.0 0.00 0.03 0.03 55 1016.3
20260508120304 19 23 1.6 8.0 0.00 0.03 0.03 58 1016.3
20260508115804 19 92 1.6 9.7 0.00 0.03 0.03 57 1016.3
20260508115306 20 26 4.8 8.0 0.00 0.03 0.03 55 1016.3
20260508114804 21 300 3.2 9.7 0.00 0.03 0.03 56 1016.4
20260508114303 21 254 3.2 8.0 0.00 0.03 0.03 52 1016.5
20260508113804 21 54 1.6 8.0 0.00 0.03 0.03 50 1016.5
20260508113304 21 222 1.6 4.8 0.00 0.03 0.03 52 1016.6
20260508112804 21 126 1.6 4.8 0.00 0.03 0.03 57 1016.6
20260508112306 21 105 1.6 8.0 0.00 0.03 0.03 55 1016.6
20260508111803 21 115 3.2 4.8 0.00 0.03 0.03 56 1016.7
20260508111304 20 97 1.6 3.2 0.00 0.03 0.03 56 1016.7
20260508110303 20 63 1.6 8.0 0.00 0.03 0.03 57 1016.7
20260508105804 18 96 1.6 3.2 0.00 0.03 0.03 61 1016.7
20260508105306 19 293 1.6 3.2 0.00 0.03 0.03 61 1017.1
20260508104804 19 293 1.6 4.8 0.00 0.03 0.03 59 1017.1
20260508104303 19 282 3.2 8.0 0.00 0.03 0.03 59 1017.1
20260508102306 17 24 1.6 3.2 0.00 0.03 0.03 64 1017.1
20260508101804 17 94 1.6 1.6 0.00 0.03 0.03 66 1017.1
20260508101303 17 32 1.6 3.2 0.00 0.03 0.03 65 1017.1
20260508100803 17 35 0.0 3.2 0.00 0.03 0.03 63 1017.1
20260508095803 18 305 0.0 4.8 0.00 0.03 0.03 61 1017.1
20260508095306 18 343 1.6 11.3 0.00 0.03 0.03 62 1017.3
20260508093804 19 282 1.6 4.8 0.00 0.03 0.03 63 1017.3
20260508093303 19 47 1.6 8.0 0.00 0.03 0.03 59 1017.3
20260508092312 19 311 3.2 4.8 0.00 0.03 0.03 63 1017.3
20260508091804 18 209 0.0 3.2 0.00 0.03 0.03 64 1017.3
20260508091303 18 220 1.6 8.0 0.00 0.03 0.03 65 1017.3
20260508090304 18 58 1.6 4.8 0.00 0.03 0.03 64 1017.3
20260508085804 17 307 1.6 4.8 0.00 0.03 0.03 67 1017.3
20260508085306 17 270 3.2 4.8 0.00 0.03 0.03 66 1017.3
20260508084803 17 261 0.0 4.8 0.00 0.03 0.03 67 1017.2
20260508083804 16 300 3.2 8.0 0.00 0.03 0.03 70 1017.3
20260508083304 16 304 1.6 4.8 0.00 0.03 0.03 71 1017.3
20260508082306 16 275 1.6 3.2 0.00 0.03 0.03 72 1017.3
20260508081804 15 275 3.2 4.8 0.00 0.03 0.03 71 1017.4
20260508081304 15 233 1.6 3.2 0.00 0.03 0.03 75 1017.4
20260508080303 15 275 0.0 3.2 0.00 0.03 0.03 75 1017.3
20260508075803 15 292 1.6 3.2 0.00 0.03 0.03 74 1017.3
20260508075308 14 61 1.6 3.2 0.00 0.03 0.03 77 1017.4
20260508074803 14 61 1.6 3.2 0.00 0.05 0.03 78 1017.4
20260508074303 13 61 1.6 8.0 0.00 0.05 0.03 78 1017.4
20260508073804 13 277 1.6 4.8 0.00 0.05 0.03 79 1017.4
20260508073303 13 120 1.6 3.2 0.00 0.05 0.03 80 1017.4
20260508072804 13 159 0.0 8.0 0.00 0.05 0.03 80 1017.4
20260508072307 13 159 1.6 3.2 0.00 0.05 0.03 80 1017.5
20260508071804 12 111 1.6 3.2 0.00 0.05 0.03 82 1017.5
20260508071304 12 111 1.6 4.8 0.00 0.05 0.03 81 1017.5
20260508070804 12 111 0.0 1.6 0.00 0.05 0.03 83 1017.5
20260508070304 11 111 1.6 4.8 0.00 0.08 0.03 83 1017.5
20260508065803 11 163 3.2 8.0 0.00 0.08 0.03 84 1017.5
20260508065307 11 121 1.6 3.2 0.00 0.08 0.03 85 1017.4
20260508064304 10 121 0.0 4.8 0.00 0.08 0.03 88 1017.4
20260508063304 10 40 1.6 3.2 0.00 0.10 0.03 90 1017.4
20260508062803 9 39 0.0 1.6 0.00 0.10 0.03 91 1017.4
20260508062306 8 39 0.0 1.6 0.00 0.10 0.03 92 1017.4
20260508061804 8 39 0.0 1.6 0.00 0.10 0.03 97 1017.4
20260508061303 7 39 0.0 3.2 0.00 0.13 0.03 98 1017.3
20260508060804 7 39 1.6 3.2 0.00 0.13 0.03 97 1017.4
20260508060318 7 39 1.6 3.2 0.00 0.13 0.03 99 1017.5
20260508055804 7 38 1.6 3.2 0.00 0.13 0.03 100 1017.5
20260508054804 6 5 0.0 3.2 0.00 0.15 0.03 100 1017.5
20260508054303 6 5 0.0 1.6 0.00 0.15 0.03 100 1017.5
20260508053803 6 5 0.0 1.6 0.00 0.15 0.03 100 1017.5
20260508053304 6 5 0.0 3.2 0.00 0.15 0.03 100 1017.5
20260508052804 6 5 0.0 1.6 0.00 0.15 0.03 100 1017.4
20260508052306 6 5 0.0 0.0 0.00 0.15 0.03 100 1017.4
20260508051804 6 5 0.0 0.0 0.00 0.15 0.03 100 1017.4
20260508051303 6 5 0.0 1.6 0.00 0.15 0.03 100 1017.4
20260508050803 6 5 0.0 0.0 0.00 0.15 0.03 100 1017.3
20260508050304 6 5 0.0 1.6 0.00 0.15 0.03 100 1017.3
20260508045804 6 5 0.0 1.6 0.00 0.15 0.03 100 1017.4
20260508045306 5 5 0.0 1.6 0.00 0.15 0.03 100 1017.4
20260508044803 5 5 0.0 1.6 0.00 0.15 0.03 100 1017.4
20260508044304 5 5 0.0 1.6 0.00 0.15 0.03 100 1017.1
20260508043803 5 5 0.0 0.0 0.00 0.15 0.03 100 1017.1
20260508042307 5 5 0.0 1.6 0.00 0.15 0.03 100 1017.0
20260508041804 5 5 0.0 1.6 0.00 0.15 0.03 100 1017.0
20260508041303 5 5 0.0 1.6 0.00 0.18 0.03 100 1017.0
20260508040804 5 5 0.0 1.6 0.00 0.18 0.03 100 1016.8
20260508040303 5 5 0.0 0.0 0.00 0.18 0.03 100 1016.8
20260508035803 5 5 0.0 1.6 0.00 0.20 0.03 100 1016.8
20260508035306 5 5 0.0 0.0 0.00 0.20 0.03 100 1016.8
20260508034804 5 5 0.0 0.0 0.00 0.20 0.03 100 1016.8
20260508034304 5 5 0.0 0.0 0.00 0.20 0.03 100 1016.8
20260508033804 5 5 0.0 0.0 0.00 0.20 0.03 100 1016.8
20260508033304 5 5 0.0 0.0 0.00 0.20 0.03 100 1016.6
20260508032803 4 5 0.0 0.0 0.00 0.20 0.03 100 1016.6
20260508032306 4 5 0.0 0.0 0.00 0.20 0.03 100 1016.6
20260508031804 3 5 0.0 0.0 0.00 0.20 0.03 100 1016.6
20260508030303 3 5 0.0 0.0 0.00 0.23 0.03 100 1016.6